Location: Mason
(37.5237°N, 89.2543°W)
Time: 14:57:57
(UTC+00:00)

Cosmos 1633 Rocket - Pass Details

Date: 08 December 2021
Orbit: 608 x 622 km, 82.5° (Epoch: 19 January)

Event Time Altitude Azimuth Distance (km) Brightness Sun altitude
Rises 23:26:09 0° 357° (N) 2,890 6.3 -9.4°
Reaches altitude 10° 23:28:25 10° 2° (N) 1,983 5.4 -9.8°
Maximum altitude 23:32:44 57° 81° (E) 728 3.1 -10.6°
Drops below altitude 10° 23:37:03 10° 160° (SSE) 1,977 5.7 -11.4°
Sets 23:39:18 0° 165° (SSE) 2,880 6.6 -11.8°
